Flag Weather past 2 weeks in Timișoara, Romania

Now
41 °F

Fog.


Feels Like: 39 °F
Forecast: 30 / 44 °F
Wind: 3 mph from North

Location: Timisoara Airport

Current Time: Nov 22, 2014 at 3:45:10 AM

Latest Report: Nov 22, 2014 at 3:00 AM


Visibility: 2 mi

Pressure: 30.27 "Hg

Humidity: 100%

Dew point: 41 °F

Location of TimișoaraLocation

Historic Weather in Timișoara — Graph

°F

Timișoara temperature yesterday

Maximum temperature yesterday: 45 °F (at 12:30 PM)
Minimum temperature yesterday: 41 °F (at 5:30 AM)
Average temperature yesterday: 42 °F

Past Weeks' High & Low Weather Summary

 TemperatureHumidityPressure
High75 °F (Nov 7, 2:30 PM)100% (Nov 8, 6:30 AM)30.27 "Hg (Nov 8, 6:30 AM)
Low39 °F (Nov 15, 2:00 AM)39% (Nov 7, 2:30 PM)29.80 "Hg (Nov 13, 4:30 AM)
Average50 °F87%29.99 "Hg
* Reported Nov 7 2:00 AM — Nov 22 2:30 AM, Timișoara, Weather by CustomWeather, © 2014

Note: Actual official high and low records may vary slightly from our data, if they occured in-between our weather recording intervals... More about our weather records

Advertising

Timișoara weather history for previous 24 hours

 ConditionsComfort  
Time TempWeatherWind HumidityBarometerVisibility
2:30 AM
Nov 22
41 °FFog.2 mph100%30.27 "Hg2 mi
2:00 AM41 °FFog.2 mph100%30.27 "Hg2 mi
1:30 AM41 °FFog.2 mph100%30.27 "Hg2 mi
1:00 AM41 °FFog.No wind100%30.27 "Hg1 mi
12:30 AM41 °FFog.No wind100%30.27 "Hg1 mi
12:00 AM41 °FFog.1 mph100%30.27 "Hg1 mi
11:30 PM
Nov 21
41 °FFog.2 mph100%30.27 "Hg1 mi
11:00 PM41 °FFog.3 mph93%30.27 "Hg2 mi
10:30 PM41 °FFog.2 mph100%30.27 "Hg2 mi
10:00 PM41 °FFog.5 mph100%30.27 "Hg2 mi
9:30 PM41 °FFog.3 mph100%30.27 "Hg2 mi
9:00 PM41 °FFog.2 mph100%30.27 "Hg2 mi
8:30 PM41 °FFog.2 mph100%30.27 "Hg3 mi
8:00 PM41 °FFog.2 mph100%30.27 "Hg3 mi
7:30 PM41 °FFog.2 mph100%30.27 "Hg3 mi
7:00 PM41 °FPassing clouds.2 mph100%30.27 "Hg4 mi
6:30 PM41 °FFog.3 mph100%30.27 "Hg3 mi
6:00 PM41 °FFog.3 mph100%30.27 "Hg3 mi
5:30 PM41 °FFog.3 mph100%30.24 "Hg2 mi
5:00 PM41 °FDrizzle. Fog.6 mph100%30.24 "Hg2 mi
4:30 PM43 °FPartly sunny.6 mph87%30.24 "HgN/A
4:00 PM43 °FLight rain. Partly sunny.7 mph87%30.24 "HgN/A
3:30 PM43 °FPartly sunny.8 mph81%30.24 "HgN/A
3:00 PM43 °FPartly sunny.7 mph81%30.24 "HgN/A
2:30 PM43 °FPartly sunny.7 mph81%30.24 "HgN/A
2:00 PM43 °FPartly sunny.7 mph81%30.24 "HgN/A
1:30 PM43 °FPartly sunny.6 mph81%30.24 "HgN/A
1:00 PM45 °FPartly sunny.7 mph76%30.24 "HgN/A
12:30 PM45 °FScattered clouds.7 mph76%30.24 "HgN/A
12:00 PM43 °FScattered clouds.6 mph76%30.24 "HgN/A
11:30 AM43 °FPartly sunny.6 mph76%30.24 "HgN/A
11:00 AM43 °FPartly sunny.6 mph76%30.24 "HgN/A
10:30 AM43 °FPartly sunny.9 mph76%30.24 "HgN/A
10:00 AM43 °FPartly sunny.8 mph76%30.24 "HgN/A
9:30 AM43 °FScattered clouds.9 mph71%30.24 "HgN/A
9:00 AM43 °FScattered clouds.7 mph71%30.24 "HgN/A
8:30 AM41 °FPartly sunny.3 mph76%30.21 "HgN/A
8:00 AM41 °FPartly sunny.5 mph76%30.21 "HgN/A
7:30 AM41 °FPassing clouds.7 mph81%30.21 "HgN/A
7:00 AM41 °FPassing clouds.5 mph81%30.21 "HgN/A
6:30 AM41 °FPartly cloudy.3 mph81%30.21 "HgN/A
6:00 AM41 °FOvercast.5 mph81%30.21 "HgN/A
5:30 AM41 °FOvercast.5 mph87%30.21 "HgN/A
5:00 AM43 °FOvercast.3 mph81%30.21 "HgN/A
4:30 AM43 °FOvercast.5 mph81%30.21 "HgN/A
4:00 AM43 °FOvercast.3 mph81%30.21 "HgN/A
3:30 AM43 °FOvercast.3 mph81%30.21 "HgN/A
3:00 AM43 °FOvercast.3 mph87%30.21 "HgN/A
Weather by CustomWeather, © 2014

See weather overviewHow to use our weather pages